AWQ607 WIOO-WIII

Flight info

Callsign AWQ607
Flight time N/A
Altitude 38000
Route MASRI1D MASRI W38 AMBOY DCT
Aircraft A320/M-V/N

Departure

Time 2026-05-01 11:28
Airport Supadio International Airport (WIOO)

Arrival

Time N/A
Airport Soekarno-Hatta International Airport (WIII)
Time Latitude Longitude Altitude Speed Heading
2026-05-01 10:42 -0.14786 109.40409 22 ft 0 kts 67°
2026-05-01 11:07 -0.14791 109.40396 25 ft 4 kts 57°
2026-05-01 11:08 -0.14809 109.40379 26 ft 4 kts 15°
2026-05-01 11:08 -0.14827 109.40379 27 ft 1 kts 341°
2026-05-01 11:08 -0.14831 109.40380 26 ft 0 kts 341°
2026-05-01 11:11 -0.14830 109.40380 26 ft 1 kts 341°
2026-05-01 11:11 -0.14811 109.40373 24 ft 5 kts 341°
2026-05-01 11:12 -0.14770 109.40358 24 ft 8 kts 339°
2026-05-01 11:12 -0.14707 109.40331 24 ft 11 kts 334°
2026-05-01 11:12 -0.14685 109.40313 23 ft 0 kts 304°
2026-05-01 11:12 -0.14686 109.40314 24 ft 0 kts 304°
2026-05-01 11:13 -0.14687 109.40315 24 ft 0 kts 304°
2026-05-01 11:13 -0.14691 109.40271 22 ft 11 kts 258°
2026-05-01 11:13 -0.14655 109.40221 22 ft 8 kts 317°
2026-05-01 11:14 -0.14658 109.40208 22 ft 1 kts 208°
2026-05-01 11:14 -0.14723 109.40243 25 ft 21 kts 160°
2026-05-01 11:14 -0.14872 109.40304 23 ft 24 kts 158°
2026-05-01 11:14 -0.15034 109.40372 24 ft 26 kts 158°
2026-05-01 11:15 -0.15207 109.40441 23 ft 27 kts 158°
2026-05-01 11:15 -0.15386 109.40513 24 ft 29 kts 158°
2026-05-01 11:15 -0.15566 109.40585 22 ft 28 kts 158°
2026-05-01 11:15 -0.15757 109.40662 20 ft 33 kts 159°
2026-05-01 11:16 -0.16002 109.40760 21 ft 41 kts 158°
2026-05-01 11:16 -0.16163 109.40824 21 ft 0 kts 158°
2026-05-01 11:16 -0.16177 109.40829 21 ft 4 kts 158°
2026-05-01 11:16 -0.16212 109.40843 22 ft 7 kts 158°
2026-05-01 11:17 -0.16264 109.40863 25 ft 9 kts 159°
2026-05-01 11:17 -0.16328 109.40888 24 ft 9 kts 159°
2026-05-01 11:17 -0.16380 109.40908 27 ft 7 kts 159°
2026-05-01 11:17 -0.16413 109.40920 27 ft 4 kts 160°
2026-05-01 11:18 -0.16429 109.40926 28 ft 1 kts 160°
2026-05-01 11:18 -0.16433 109.40927 28 ft 0 kts 160°
2026-05-01 11:26 -0.16427 109.40952 26 ft 3 kts 30°
2026-05-01 11:26 -0.16360 109.40914 26 ft 29 kts 331°
2026-05-01 11:27 -0.16202 109.40844 22 ft 10 kts 337°
2026-05-01 11:27 -0.16084 109.40796 22 ft 38 kts 338°
2026-05-01 11:27 -0.15613 109.40602 22 ft 105 kts 338°
2026-05-01 11:27 -0.14767 109.40252 27 ft 155 kts 337°
2026-05-01 11:28 -0.13701 109.39832 371 ft 169 kts 338°
2026-05-01 11:28 -0.12561 109.39414 903 ft 176 kts 331°
2026-05-01 11:28 -0.11784 109.38613 1772 ft 156 kts 288°
2026-05-01 11:29 -0.12504 109.36606 2698 ft 182 kts 227°
2026-05-01 11:29 -0.13393 109.35612 3109 ft 202 kts 233°
2026-05-01 11:29 -0.14740 109.33273 3936 ft 241 kts 247°
2026-05-01 11:30 -0.14757 109.33235 3950 ft 242 kts 247°
2026-05-01 11:30 -0.15402 109.31612 4606 ft 257 kts 250°
2026-05-01 11:30 -0.16013 109.29901 5382 ft 270 kts 251°
2026-05-01 11:30 -0.16655 109.28056 5871 ft 292 kts 251°
2026-05-01 11:31 -0.17351 109.26064 6290 ft 314 kts 251°
2026-05-01 11:31 -0.18102 109.23937 6691 ft 334 kts 251°
2026-05-01 11:31 -0.18888 109.21726 7472 ft 340 kts 251°
2026-05-01 11:31 -0.19687 109.19486 8307 ft 345 kts 251°
2026-05-01 11:32 -0.20508 109.17213 9139 ft 349 kts 248°
2026-05-01 11:32 -0.21800 109.15149 9933 ft 355 kts 228°
2026-05-01 11:32 -0.23729 109.13657 10698 ft 361 kts 208°
2026-05-01 11:32 -0.26140 109.12874 11461 ft 368 kts 189°
2026-05-01 11:33 -0.28717 109.12801 12200 ft 373 kts 179°
2026-05-01 11:33 -0.31322 109.12953 12921 ft 377 kts 177°
2026-05-01 11:33 -0.33953 109.13128 13623 ft 381 kts 178°
2026-05-01 11:33 -0.36623 109.13272 14318 ft 385 kts 178°
2026-05-01 11:34 -0.39171 109.13377 14965 ft 389 kts 179°
2026-05-01 11:34 -0.41860 109.13467 15623 ft 392 kts 179°
2026-05-01 11:34 -0.44604 109.13548 16266 ft 396 kts 179°
2026-05-01 11:34 -0.47374 109.13627 16895 ft 400 kts 179°
2026-05-01 11:35 -0.50166 109.13705 17501 ft 404 kts 179°
2026-05-01 11:35 -0.52989 109.13705 18096 ft 407 kts 184°
2026-05-01 11:35 -0.55818 109.13485 18679 ft 410 kts 185°
2026-05-01 11:35 -0.58680 109.13263 19253 ft 413 kts 185°
2026-05-01 11:36 -0.61534 109.13048 20083 ft 406 kts 185°
2026-05-01 11:36 -0.64334 109.12838 20945 ft 403 kts 185°
2026-05-01 11:36 -0.67155 109.12625 21446 ft 408 kts 185°
2026-05-01 11:36 -0.69993 109.12411 21960 ft 411 kts 185°
2026-05-01 11:37 -0.72859 109.12194 22488 ft 414 kts 185°
2026-05-01 11:37 -0.75752 109.11976 22998 ft 418 kts 185°
2026-05-01 11:37 -0.78618 109.11760 23485 ft 421 kts 185°
2026-05-01 11:37 -0.81556 109.11538 23974 ft 424 kts 185°
2026-05-01 11:38 -0.84511 109.11315 24453 ft 427 kts 185°
2026-05-01 11:38 -0.87491 109.11091 24907 ft 430 kts 185°
2026-05-01 11:38 -0.90475 109.10865 25348 ft 433 kts 185°
2026-05-01 11:38 -0.93496 109.10638 25777 ft 436 kts 185°
2026-05-01 11:39 -0.96532 109.10409 26191 ft 439 kts 185°
2026-05-01 11:39 -0.99586 109.10169 26602 ft 441 kts 187°
2026-05-01 11:39 -1.02595 109.09680 26976 ft 443 kts 194°
2026-05-01 11:39 -1.05568 109.08858 27346 ft 445 kts 198°
2026-05-01 11:40 -1.08540 109.07973 27707 ft 447 kts 197°
2026-05-01 11:40 -1.11540 109.07090 28054 ft 450 kts 197°
2026-05-01 11:40 -1.14548 109.06207 28388 ft 452 kts 197°
2026-05-01 11:40 -1.17583 109.05318 28717 ft 454 kts 197°
2026-05-01 11:41 -1.20627 109.04425 29018 ft 457 kts 197°
2026-05-01 11:41 -1.23689 109.03526 29311 ft 459 kts 197°
2026-05-01 11:41 -1.26753 109.02627 29598 ft 461 kts 197°
2026-05-01 11:41 -1.29836 109.01722 29880 ft 463 kts 197°
2026-05-01 11:42 -1.32945 109.00809 30193 ft 464 kts 197°
2026-05-01 11:42 -1.36026 108.99904 30689 ft 461 kts 197°
2026-05-01 11:42 -1.39110 108.98999 30988 ft 463 kts 197°
2026-05-01 11:42 -1.42206 108.98089 31352 ft 463 kts 197°
2026-05-01 11:43 -1.45259 108.97193 31753 ft 462 kts 197°
2026-05-01 11:43 -1.47345 108.96580 32015 ft 461 kts 197°
2026-05-01 11:43 -1.51439 108.95378 32506 ft 460 kts 197°
2026-05-01 11:44 -1.57582 108.93574 33193 ft 459 kts 197°
2026-05-01 11:44 -1.60621 108.92681 33371 ft 462 kts 197°
2026-05-01 11:44 -1.63699 108.91777 33751 ft 459 kts 197°
2026-05-01 11:44 -1.66760 108.90878 34173 ft 457 kts 197°
2026-05-01 11:45 -1.69803 108.89984 34484 ft 456 kts 197°
2026-05-01 11:45 -1.72855 108.89087 34761 ft 455 kts 197°
2026-05-01 11:45 -1.75887 108.88197 35036 ft 455 kts 197°
2026-05-01 11:45 -1.78930 108.87302 35305 ft 454 kts 197°
2026-05-01 11:46 -1.80935 108.86713 35476 ft 454 kts 197°
2026-05-01 11:46 -1.83971 108.85821 35729 ft 453 kts 197°
2026-05-01 11:46 -1.86997 108.84932 35971 ft 453 kts 197°
2026-05-01 11:46 -1.91006 108.83754 36272 ft 452 kts 197°
2026-05-01 11:47 -1.94025 108.82867 36473 ft 452 kts 197°
2026-05-01 11:47 -1.97045 108.81980 36675 ft 452 kts 197°
2026-05-01 11:47 -1.99085 108.81380 36795 ft 452 kts 197°
2026-05-01 11:47 -2.03090 108.80203 37048 ft 452 kts 197°
2026-05-01 11:48 -2.05095 108.79614 37159 ft 452 kts 197°
2026-05-01 11:48 -2.08125 108.78724 37339 ft 452 kts 197°
2026-05-01 11:48 -2.11146 108.77836 37505 ft 452 kts 197°
2026-05-01 11:48 -2.15152 108.76658 37730 ft 452 kts 197°
2026-05-01 11:49 -2.20214 108.75170 37971 ft 452 kts 197°
2026-05-01 11:49 -2.26282 108.73386 38001 ft 458 kts 197°
2026-05-01 11:50 -2.32278 108.71623 38000 ft 463 kts 197°
2026-05-01 11:50 -2.38473 108.69802 38000 ft 463 kts 197°
2026-05-01 11:51 -2.44662 108.67983 38000 ft 463 kts 197°
2026-05-01 11:51 -2.50838 108.66161 38000 ft 463 kts 198°
2026-05-01 11:52 -2.57006 108.64282 38000 ft 463 kts 198°
2026-05-01 11:52 -2.63130 108.62411 38000 ft 463 kts 198°
2026-05-01 11:53 -2.69293 108.60535 38000 ft 463 kts 198°
2026-05-01 11:53 -2.75468 108.58657 38000 ft 463 kts 198°
2026-05-01 11:54 -2.81634 108.56782 38000 ft 463 kts 198°
2026-05-01 11:54 -2.87777 108.54913 38000 ft 463 kts 198°
2026-05-01 11:55 -2.93938 108.53039 38000 ft 463 kts 198°
2026-05-01 11:55 -3.00119 108.51158 38000 ft 463 kts 198°
2026-05-01 11:56 -3.06293 108.49280 38000 ft 463 kts 198°
2026-05-01 11:56 -3.12420 108.47415 38000 ft 463 kts 198°
2026-05-01 11:57 -3.18585 108.45539 38000 ft 463 kts 198°
2026-05-01 11:57 -3.20668 108.44905 38000 ft 463 kts 198°
2026-05-01 11:59 -3.40854 108.38759 38000 ft 463 kts 198°
2026-05-01 11:59 -3.47013 108.36884 38000 ft 463 kts 198°
2026-05-01 12:00 -3.56267 108.34065 38000 ft 463 kts 198°
2026-05-01 12:01 -3.65470 108.31261 38000 ft 463 kts 198°
2026-05-01 12:01 -3.71629 108.29384 38000 ft 463 kts 198°
2026-05-01 12:02 -3.77803 108.27503 38000 ft 463 kts 198°
2026-05-01 12:02 -3.83958 108.25627 38000 ft 463 kts 198°
2026-05-01 12:03 -3.90138 108.23743 38000 ft 463 kts 198°
2026-05-01 12:03 -3.96296 108.21865 38000 ft 463 kts 198°
2026-05-01 12:04 -4.02424 108.19997 38000 ft 463 kts 198°
2026-05-01 12:04 -4.08588 108.18117 38000 ft 463 kts 198°
2026-05-01 12:05 -4.14642 108.15938 38001 ft 462 kts 206°
2026-05-01 12:05 -4.22231 108.11985 38000 ft 461 kts 208°
2026-05-01 12:06 -4.27926 108.08996 38000 ft 461 kts 208°
2026-05-01 12:06 -4.33629 108.05999 38000 ft 461 kts 208°
2026-05-01 12:07 -4.39281 108.03027 38000 ft 461 kts 208°
2026-05-01 12:07 -4.44979 108.00029 38000 ft 461 kts 208°
2026-05-01 12:08 -4.50675 107.97032 38000 ft 461 kts 208°
2026-05-01 12:08 -4.56328 107.94057 38000 ft 461 kts 208°
2026-05-01 12:09 -4.62020 107.91061 38000 ft 461 kts 208°
2026-05-01 12:09 -4.67706 107.88067 38000 ft 461 kts 208°
2026-05-01 12:10 -4.76214 107.83587 38000 ft 461 kts 208°
2026-05-01 12:11 -4.84746 107.79093 38000 ft 461 kts 208°
2026-05-01 12:11 -4.90450 107.76088 38000 ft 461 kts 208°
2026-05-01 12:12 -4.96118 107.73101 37936 ft 461 kts 208°
2026-05-01 12:12 -5.01805 107.70103 37563 ft 462 kts 208°
2026-05-01 12:13 -5.04647 107.68605 37026 ft 460 kts 208°
2026-05-01 12:13 -5.07467 107.67119 36452 ft 456 kts 208°
2026-05-01 12:13 -5.10260 107.65646 35882 ft 452 kts 208°
2026-05-01 12:13 -5.13041 107.64180 35310 ft 449 kts 208°
2026-05-01 12:14 -5.15753 107.62706 34695 ft 446 kts 213°
2026-05-01 12:14 -5.18199 107.60807 34068 ft 442 kts 225°
2026-05-01 12:14 -5.20180 107.58468 33449 ft 439 kts 237°
2026-05-01 12:14 -5.21637 107.55786 32827 ft 436 kts 248°
2026-05-01 12:15 -5.22739 107.52964 32198 ft 434 kts 249°
2026-05-01 12:15 -5.23840 107.50148 31581 ft 432 kts 249°
2026-05-01 12:15 -5.24940 107.47353 30920 ft 431 kts 249°
2026-05-01 12:15 -5.26039 107.44561 30183 ft 425 kts 249°
2026-05-01 12:16 -5.27117 107.41822 29454 ft 418 kts 249°
2026-05-01 12:16 -5.28161 107.39167 28746 ft 412 kts 249°
2026-05-01 12:16 -5.29208 107.36506 28020 ft 406 kts 249°
2026-05-01 12:16 -5.30236 107.33889 27296 ft 401 kts 249°
2026-05-01 12:17 -5.31261 107.31282 26570 ft 400 kts 249°
2026-05-01 12:17 -5.32271 107.28711 25881 ft 397 kts 249°
2026-05-01 12:17 -5.33236 107.26254 25325 ft 392 kts 249°
2026-05-01 12:17 -5.34232 107.23718 25076 ft 388 kts 249°
2026-05-01 12:18 -5.35233 107.21170 25002 ft 389 kts 249°
2026-05-01 12:18 -5.36215 107.18662 25003 ft 391 kts 249°
2026-05-01 12:18 -5.37207 107.16122 24978 ft 390 kts 249°
2026-05-01 12:18 -5.38189 107.13604 24918 ft 382 kts 249°
2026-05-01 12:19 -5.39147 107.11150 24779 ft 372 kts 249°
2026-05-01 12:19 -5.40085 107.08747 24371 ft 368 kts 249°
2026-05-01 12:19 -5.41013 107.06368 23942 ft 364 kts 249°
2026-05-01 12:19 -5.41931 107.04017 23512 ft 360 kts 249°
2026-05-01 12:20 -5.42842 107.01681 23095 ft 359 kts 249°
2026-05-01 12:20 -5.43751 106.99351 22676 ft 357 kts 249°
2026-05-01 12:20 -5.44640 106.97072 22250 ft 354 kts 249°
2026-05-01 12:20 -5.45534 106.94781 21825 ft 351 kts 249°
2026-05-01 12:21 -5.46448 106.92507 21396 ft 350 kts 244°
2026-05-01 12:21 -5.47868 106.90548 21096 ft 346 kts 223°
2026-05-01 12:21 -5.49861 106.89208 21011 ft 349 kts 204°
2026-05-01 12:21 -5.52144 106.88312 20999 ft 353 kts 202°
2026-05-01 12:22 -5.54430 106.87434 21000 ft 352 kts 202°
2026-05-01 12:22 -5.56716 106.86556 20877 ft 350 kts 202°
2026-05-01 12:22 -5.58999 106.85676 20460 ft 353 kts 202°
2026-05-01 12:22 -5.61294 106.84792 19963 ft 352 kts 202°
2026-05-01 12:23 -5.63573 106.83914 19461 ft 350 kts 202°
2026-05-01 12:23 -5.65822 106.83047 18961 ft 349 kts 202°
2026-05-01 12:23 -5.68085 106.82175 18474 ft 348 kts 202°
2026-05-01 12:23 -5.70337 106.81307 17964 ft 346 kts 202°
2026-05-01 12:24 -5.72587 106.80439 17464 ft 345 kts 202°
2026-05-01 12:24 -5.74826 106.79575 16955 ft 343 kts 202°
2026-05-01 12:24 -5.77054 106.78715 16465 ft 342 kts 202°
2026-05-01 12:24 -5.79271 106.77860 15962 ft 341 kts 202°
2026-05-01 12:25 -5.81477 106.77009 15462 ft 339 kts 202°
2026-05-01 12:25 -5.85750 106.75088 14456 ft 334 kts 219°
2026-05-01 12:25 -5.87273 106.73360 13951 ft 330 kts 241°
2026-05-01 12:26 -5.88182 106.71285 13412 ft 329 kts 249°
2026-05-01 12:26 -5.89870 106.67019 12313 ft 329 kts 249°
2026-05-01 12:26 -5.90830 106.64933 11756 ft 329 kts 237°
2026-05-01 12:27 -5.92258 106.63143 11218 ft 329 kts 231°
2026-05-01 12:27 -5.95216 106.59643 10099 ft 328 kts 230°
2026-05-01 12:28 -5.98171 106.56147 9139 ft 322 kts 230°
2026-05-01 12:28 -5.99702 106.54592 9083 ft 306 kts 215°
2026-05-01 12:28 -6.03517 106.53937 9397 ft 289 kts 163°